Weather History for Winnemucca, NV

Change the Weather History Date:

Tuesday, August 12, 2014

  Actual Average Record
Temperature  
Mean Temperature 70 °F 71 °F  
Max Temperature 87 °F 93 °F 104 °F (1933)
Min Temperature 53 °F 50 °F 35 °F (1957)
Degree Days  
Heating Degree Days 0 0  
Month to date heating degree days 4 0  
Since 1 June heating degree days 78 115  
Since 1 July heating degree days 4 10  
Cooling Degree Days 5 7  
Month to date cooling degree days 83 91  
Year to date cooling degree days 560 424  
Since 1 June cooling degree days 551 413  
Growing Degree Days 20 (Base 50)    
Moisture  
Dew Point 48 °F    
Average Humidity 49    
Maximum Humidity 77    
Minimum Humidity 21    
Precipitation  
Precipitation 0.01 in 0.00 in 0.04 in (1927)
Month to date precipitation 0.46 0.07  
Year to date precipitation 4.55 5.25  
Snow  
Snow 0.00 in 0.00 in 0.00 in (1877)
Month to date snowfall 0.0 0.0  
Since 1 June snowfall 0.0 T  
Since 1 July snowfall 0.0 0.0  
Snow Depth 0.00 in    
Sea Level Pressure  
Sea Level Pressure 29.99 in    
Wind  
Wind Speed 6 mph (West)    
Max Wind Speed 21 mph    
Max Gust Speed 25 mph    
Visibility 10 miles    
Events Rain , Thunderstorm    
T = Trace of Precipitation, MM = Missing Value Source: NWS Daily Summary

Daily Weather History Graph

Daily Weather History Graph

Search for Another Location

Airport:

Trip Planner

Search our weather history database for the weather conditions in past years. The results will help you decide how hot, cold, wet, or windy it might be!

Date:

Astronomy

Aug. 12, 2014 Rise Set
Actual Time 5:58 AM PDT 7:53 PM PDT
Civil Twilight 5:28 AM PDT 8:23 PM PDT
Nautical Twilight 4:52 AM PDT 8:59 PM PDT
Astronomical Twilight 4:12 AM PDT 9:38 PM PDT
Moon 9:02 PM PDT (8/12) 8:22 AM PDT (8/12)
Length of Visible Light 14h 54m
Length of Day
13h 55m
Waning Gibbous, 94% of the Moon is Illuminated
Aug 12
Waning Gibbous
Aug 17
Last Quarter
Aug 25
New
Sep 2
First Quarter
Sep 8
Full

Hourly Weather History & Observations

Time (PDT) Temp. Dew Point Humidity Pressure Visibility Wind Dir Wind Speed Gust Speed Precip Events Conditions
12:56 AM 57.9 °F 46.0 °F 65% 30.04 in 10.0 mi ENE 6.9 mph - N/A   Clear
1:56 AM 57.9 °F 45.0 °F 62% 30.04 in 10.0 mi East 8.1 mph - N/A   Clear
2:56 AM 55.0 °F 45.0 °F 69% 30.03 in 10.0 mi SSE 6.9 mph - N/A   Clear
3:56 AM 57.9 °F 46.0 °F 65% 30.01 in 10.0 mi East 6.9 mph - N/A   Clear
4:56 AM 59.0 °F 46.9 °F 64% 29.99 in 10.0 mi East 5.8 mph - N/A   Clear
5:56 AM 53.1 °F 46.0 °F 77% 30.01 in 10.0 mi West 4.6 mph - N/A   Clear
6:56 AM 59.0 °F 48.0 °F 67% 30.01 in 10.0 mi ESE 3.5 mph - N/A   Clear
7:56 AM 63.0 °F 48.9 °F 60% 30.03 in 10.0 mi West 3.5 mph - 0.00 in   Overcast
8:19 AM 63.0 °F 51.1 °F 65% 30.18 in 10.0 mi West 13.8 mph - 0.00 in Rain , Thunderstorm Light Rain
8:34 AM 62.1 °F 53.1 °F 72% 30.17 in 10.0 mi West 11.5 mph - 0.00 in Rain Light Rain
8:54 AM 62.6 °F 53.6 °F 72% 30.18 in 10.0 mi WNW 6.9 mph - 0.00 in Rain , Thunderstorm Light Rain
8:56 AM 62.6 °F 53.6 °F 72% 30.18 in 10.0 mi West 8.1 mph - N/A Rain , Thunderstorm Light Rain
9:09 AM 62.1 °F 54.0 °F 75% 30.19 in 10.0 mi WSW 10.4 mph - 0.00 in   Mostly Cloudy
10:56 AM 71.1 °F 55.9 °F 59% 30.03 in 10.0 mi NW 5.8 mph - N/A   Partly Cloudy
11:56 AM 77.0 °F 52.0 °F 42% 30.01 in 10.0 mi NNE 9.2 mph - N/A   Clear
1:30 PM 81.0 °F 50.0 °F 34% 30.07 in 2.5 mi Variable 5.8 mph - N/A   Haze
1:56 PM 82.9 °F 48.9 °F 31% 29.93 in 10.0 mi Variable 3.5 mph - N/A   Clear
2:56 PM 84.9 °F 48.9 °F 29% 29.89 in 10.0 mi West 9.2 mph - N/A   Scattered Clouds
3:56 PM 87.1 °F 43.0 °F 21% 29.86 in 10.0 mi Variable 4.6 mph 16.1 mph N/A   Scattered Clouds
4:56 PM 84.9 °F 48.0 °F 28% 29.86 in 10.0 mi West 12.7 mph 19.6 mph N/A   Clear
5:56 PM 84.9 °F 45.0 °F 25% 29.86 in 10.0 mi West 8.1 mph - N/A   Clear
6:56 PM 82.9 °F 45.0 °F 26% 29.85 in 10.0 mi West 6.9 mph - N/A   Mostly Cloudy
7:56 PM 79.0 °F 46.0 °F 31% 29.87 in 10.0 mi NW 5.8 mph - N/A   Overcast
8:56 PM 73.9 °F 46.9 °F 38% 29.90 in 10.0 mi Calm Calm - N/A   Partly Cloudy
9:56 PM 73.9 °F 45.0 °F 35% 29.91 in 10.0 mi WNW 9.2 mph - N/A   Partly Cloudy
10:56 PM 68.0 °F 46.0 °F 45% 29.91 in 10.0 mi SE 5.8 mph - N/A   Mostly Cloudy
11:56 PM 64.0 °F 43.0 °F 46% 29.91 in 10.0 mi ESE 3.5 mph - N/A   Clear